GFSSW_700_spd_276.txt.gz
Wind_Speed
12 11 11 10 10 11 11 10 10 10 10 9 9 8 9 7 4 3 4 5 5 5 6 8 9 12 14 16 16 16 14 12 12 13 16 16 17 18 21 20 20 22 25 27 28
13 12 11 11 10 10 9 10 10 9 9 9 9 8 9 8 4 3 3 4 3 5 7 7 8 10 13 15 17 19 18 13 14 14 15 18 19 20 21 22 23 25 26 28 29
13 13 13 12 10 11 9 9 9 8 9 9 8 9 9 10 6 2 3 3 4 5 7 8 8 9 11 12 16 17 19 15 15 14 14 16 17 20 22 22 23 23 22 26 28
13 13 14 12 12 10 9 10 9 8 9 9 8 8 6 11 6 5 3 4 4 4 5 7 8 8 9 12 13 13 12 17 14 14 15 16 17 20 21 19 21 23 25 26 26
13 13 13 13 12 10 10 9 10 9 9 9 9 8 8 7 9 6 5 4 4 3 3 4 5 7 8 9 9 13 12 10 13 15 16 16 15 21 21 22 24 24 24 23 22
14 14 15 12 12 12 10 9 11 10 9 9 10 11 9 9 6 7 6 5 4 3 2 4 5 6 6 7 9 8 10 12 13 15 18 17 20 25 23 22 18 16 15 16 15
15 15 15 14 13 12 11 10 11 12 10 10 10 12 11 10 9 8 7 6 5 4 4 5 6 7 7 7 9 9 10 12 14 17 18 22 23 17 13 12 10 13 15 17 19
17 16 14 14 14 14 12 13 10 11 11 12 10 10 12 11 9 8 8 7 7 7 7 7 7 7 8 8 7 9 11 13 12 15 21 18 19 15 11 10 11 16 19 23 24
20 18 16 14 13 13 13 13 13 10 12 13 12 12 12 11 12 10 9 9 8 8 8 8 8 9 9 8 9 9 9 12 16 16 17 14 9 15 13 15 12 17 22 23 22
20 20 18 16 17 13 15 14 13 13 12 13 15 11 14 11 13 12 11 10 10 9 10 10 11 11 11 10 6 6 10 14 16 14 19 15 16 15 17 23 16 14 13 14 15
22 20 22 18 16 15 15 13 13 12 14 14 14 11 14 11 13 13 12 12 11 11 12 11 12 12 13 11 10 10 12 15 13 18 17 16 23 13 21 25 18 11 10 11 14
26 20 22 21 21 18 17 14 13 14 16 15 15 18 19 19 16 15 14 14 13 13 13 12 13 14 13 11 10 10 12 13 12 14 23 24 22 18 23 22 17 13 11 12 14
29 23 25 23 20 23 18 16 14 16 19 22 20 22 22 22 21 19 17 16 15 15 13 13 10 14 14 11 11 10 11 11 16 22 23 21 17 6 11 15 15 14 14 15 16
28 26 25 26 23 19 23 19 15 16 15 19 22 19 21 23 21 22 19 18 16 14 14 12 16 13 13 12 10 10 8 12 19 17 8 13 7 13 12 17 12 14 15 17 21
26 29 31 28 24 17 18 25 22 18 3 11 19 25 18 19 17 19 22 19 17 15 14 10 9 14 13 12 10 8 10 15 18 16 14 7 5 5 11 12 9 13 15 19 24
29 28 29 27 27 24 24 22 28 10 9 8 13 15 19 19 20 14 20 20 18 16 16 16 11 13 14 13 11 9 10 16 13 8 2 2 2 12 7 6 9 12 16 20 26
31 28 28 28 25 22 23 18 13 8 6 10 13 14 15 17 20 17 18 20 15 13 17 16 16 16 14 13 12 9 6 3 4 2 4 3 7 12 7 11 14 15 15 22 29
31 30 30 29 24 15 26 21 13 10 17 12 7 13 15 17 20 21 19 20 21 18 7 13 7 18 15 16 7 8 6 4 5 2 4 8 10 3 10 13 12 13 17 27 28
34 33 34 29 26 25 25 28 15 14 12 12 13 14 17 17 15 20 20 21 20 22 12 11 10 12 12 15 10 6 7 6 3 2 2 6 11 20 6 10 12 14 21 27 31
35 35 36 31 28 21 26 38 24 23 23 21 19 13 14 20 20 17 16 12 25 20 24 11 5 13 16 15 15 13 8 4 5 1 4 6 12 13 12 12 13 17 28 31 35
35 35 37 31 32 31 36 40 35 31 25 16 20 18 21 15 18 17 13 20 14 18 22 20 13 7 14 13 14 14 12 9 5 3 4 2 8 9 14 11 20 21 29 38 37
32 33 35 30 36 39 43 45 44 34 32 30 28 25 22 21 28 12 13 15 16 17 18 20 10 8 12 12 13 16 14 15 6 6 7 2 16 7 10 23 33 30 34 37 34
30 32 34 28 41 50 46 44 38 32 36 25 23 20 24 18 11 29 27 19 13 16 16 17 12 5 3 12 17 17 20 21 20 12 14 5 14 21 37 36 32 31 31 31 31
26 22 35 35 46 44 45 49 41 32 38 35 32 26 22 20 19 12 32 20 19 18 19 17 17 14 9 3 4 9 11 15 21 12 17 34 46 34 28 28 24 26 30 29 28
28 36 28 27 48 46 39 33 39 48 43 36 36 34 31 22 21 21 24 22 28 23 25 23 20 23 24 22 21 23 24 24 28 33 30 42 42 28 26 20 21 27 26 26 24
41 43 38 31 33 38 53 50 48 38 43 45 41 33 32 30 25 17 21 17 18 19 21 27 17 20 24 22 23 26 28 31 33 36 42 42 39 19 18 18 26 25 25 24 22
29 42 42 40 39 23 47 50 51 39 37 41 36 31 35 24 27 20 16 18 16 28 21 20 18 16 13 18 16 19 33 31 34 35 28 30 20 16 14 21 25 24 26 22 20

GFSSW_700_spd_279.txt.gz
Wind_Speed
12 12 13 13 13 13 13 12 11 11 11 11 10 10 10 8 8 9 8 7 7 8 10 11 14 16 17 19 19 18 17 13 12 9 14 15 19 19 19 20 22 23 25 25 25
13 12 13 13 13 14 12 13 11 11 11 10 10 9 8 8 8 8 7 6 7 8 9 10 11 14 17 18 19 20 20 14 13 11 11 15 16 17 19 21 23 25 27 28 28
15 13 13 12 13 13 14 12 14 11 11 11 9 8 8 8 10 8 6 5 6 7 8 10 12 13 14 14 17 19 21 16 15 11 13 15 18 18 19 20 20 23 25 26 25
14 14 13 13 13 14 13 12 13 11 11 11 9 8 8 7 7 8 5 5 5 6 8 9 11 11 12 15 15 16 14 16 16 14 15 15 14 17 18 16 21 22 22 24 25
16 15 15 13 13 13 13 13 12 11 11 11 10 10 8 8 10 9 6 6 5 6 8 9 10 10 10 11 10 14 14 12 12 15 16 15 15 19 16 20 22 20 22 21 21
17 16 14 14 13 13 13 14 12 11 9 11 10 10 10 9 9 8 8 6 5 6 8 9 9 9 8 8 10 7 12 13 13 13 14 16 17 21 22 24 22 17 14 12 12
18 18 17 14 14 14 13 14 14 11 12 10 11 11 11 11 9 10 9 8 6 7 7 8 7 8 6 7 9 10 10 11 13 13 17 17 20 19 15 12 10 9 12 13 15
22 20 20 17 14 13 13 13 14 12 11 12 12 10 10 11 11 11 10 9 8 7 7 7 8 8 8 8 8 8 11 12 11 11 16 19 20 18 15 14 11 12 15 16 17
26 23 20 20 17 15 15 13 13 13 13 13 12 11 11 12 13 12 10 10 9 9 9 8 9 9 9 10 9 10 9 11 13 14 17 16 16 15 14 19 14 15 16 16 16
26 25 25 23 19 15 15 14 13 14 13 13 14 11 13 11 11 13 12 11 11 11 11 11 12 12 13 12 7 7 10 12 13 15 17 20 19 14 20 25 19 17 16 14 14
30 27 23 25 24 19 14 15 14 15 12 12 12 10 12 10 10 13 13 13 12 13 13 13 14 14 13 13 13 13 13 14 15 17 20 17 21 15 21 27 25 19 18 13 14
26 28 26 19 24 23 19 16 14 16 17 13 12 14 16 17 15 13 14 15 14 15 14 15 16 16 15 14 13 12 13 15 15 13 20 22 23 20 17 18 23 20 18 16 16
22 22 26 23 21 21 20 16 17 17 22 25 22 21 20 19 20 20 18 17 17 16 16 16 12 15 16 15 14 12 13 14 13 16 20 20 19 12 8 13 14 16 18 18 16
26 24 24 24 23 24 22 17 15 20 17 21 26 25 20 19 20 21 22 20 19 17 17 15 19 16 14 16 14 12 13 13 14 14 7 17 7 14 16 10 13 13 16 17 17
28 26 25 25 24 24 22 17 14 15 4 7 15 21 21 19 13 15 21 22 21 18 16 13 12 17 17 15 13 12 11 13 16 16 12 7 3 5 9 7 9 11 13 16 16
31 27 27 26 26 25 19 19 14 7 8 6 10 9 18 21 18 15 15 20 21 20 19 18 14 13 16 16 14 12 11 13 16 9 2 3 3 7 5 3 8 10 12 14 15
31 28 28 26 26 21 17 14 10 9 5 7 11 10 11 16 19 20 18 20 19 17 21 20 19 18 16 16 15 13 8 3 4 2 4 4 7 12 8 9 10 11 12 14 18
32 29 29 28 26 21 12 17 14 11 14 10 7 13 10 13 16 19 21 23 26 21 8 19 9 22 19 20 10 14 11 5 6 2 4 7 9 2 3 11 11 7 13 16 21
35 31 30 26 25 22 19 21 16 18 16 18 16 18 14 19 14 10 24 25 24 27 15 12 12 14 17 20 17 11 12 10 2 3 2 6 10 11 6 9 7 14 16 19 27
34 34 31 26 25 26 26 39 28 30 26 19 17 12 11 19 14 15 18 15 27 23 25 14 6 14 17 16 20 15 9 5 7 1 4 6 11 12 6 8 7 22 21 22 29
36 32 29 25 24 30 44 39 33 37 26 20 18 15 13 13 18 23 12 21 15 14 26 28 16 9 16 17 20 19 18 11 6 5 5 1 8 7 15 9 17 29 27 26 30
31 28 21 22 26 39 44 38 37 28 31 36 31 25 21 16 20 24 23 19 16 31 20 26 13 11 14 13 17 20 18 18 7 6 7 3 13 15 7 14 32 28 28 28 27
27 33 27 20 31 39 42 41 39 32 37 30 29 33 30 24 17 19 26 29 20 15 17 19 14 6 3 12 18 19 25 24 22 14 12 5 10 14 28 33 29 28 27 26 28
25 26 19 28 36 33 33 42 35 39 42 35 38 30 30 24 22 10 14 15 28 15 21 16 15 14 8 4 7 14 23 24 25 14 17 33 38 32 31 29 24 24 23 26 27
25 32 34 17 20 41 35 32 31 44 36 32 36 36 34 28 25 26 22 18 19 37 25 19 17 25 27 17 16 16 17 19 26 29 29 39 38 33 27 21 18 17 23 25 25
35 29 23 36 36 15 28 47 42 35 37 42 41 35 38 37 32 19 14 20 17 22 27 34 20 18 23 23 24 29 26 29 30 32 39 41 42 20 15 19 16 19 23 21 21
36 41 38 29 36 41 37 14 32 38 41 39 34 40 39 34 26 29 27 24 15 14 21 33 29 24 11 18 21 25 38 38 40 42 41 43 25 15 14 18 18 20 22 23 21

GFSSW_700_spd_285.txt.gz
Wind_Speed
16 15 15 15 16 15 14 13 12 12 11 9 11 13 12 14 14 14 13 13 13 13 15 16 19 21 24 26 26 21 17 17 15 10 8 18 15 17 21 22 20 20 21 24 23
16 15 15 15 15 15 15 14 14 14 13 11 11 12 11 13 14 13 12 12 13 13 14 16 17 20 24 25 26 24 19 15 14 11 9 11 14 16 19 20 21 21 24 25 25
16 16 16 15 15 16 16 16 15 13 13 12 12 11 11 11 14 13 12 11 12 12 14 16 18 20 23 22 24 25 21 16 18 19 15 15 13 19 17 20 18 20 26 23 24
18 17 17 17 17 17 18 17 17 15 14 13 12 11 12 10 8 9 12 10 10 12 14 16 18 22 23 25 21 21 23 20 22 18 17 16 17 17 21 20 22 20 24 23 24
20 18 17 17 18 19 19 19 19 17 15 15 13 14 12 12 12 12 9 9 9 11 13 15 17 19 21 19 21 24 17 23 22 20 21 20 17 20 19 18 20 22 22 23 25
21 20 18 16 17 20 21 20 20 20 17 16 15 15 14 14 13 12 13 11 10 10 12 15 18 21 18 18 20 17 23 22 19 17 17 17 17 20 15 17 19 21 23 26 26
30 25 25 20 20 19 21 22 20 19 19 18 15 16 15 14 13 12 13 11 11 11 11 12 15 19 16 19 18 23 14 18 22 21 21 16 19 18 16 15 18 18 19 18 17
28 27 27 23 23 24 22 23 23 19 18 18 17 17 17 14 14 15 13 13 12 11 11 13 15 18 16 15 11 16 20 11 16 17 20 17 14 15 15 15 16 16 17 15 14
26 27 24 27 29 29 26 22 23 22 18 17 17 18 17 15 15 15 14 14 13 13 13 14 16 18 20 14 11 15 8 15 13 15 17 16 13 16 15 16 17 16 16 18 18
27 27 24 23 24 27 25 24 21 24 19 19 19 16 17 13 12 15 16 15 14 14 15 16 18 20 21 20 10 9 15 13 12 13 16 19 19 20 20 20 19 19 20 20 21
27 28 27 24 22 23 22 23 21 18 18 18 18 15 13 9 14 15 15 16 16 17 18 18 20 24 20 20 18 12 11 9 13 15 18 20 23 19 19 23 22 23 23 22 22
28 27 26 22 22 20 21 23 19 22 26 23 26 24 20 19 18 14 15 17 19 19 20 19 24 18 20 19 20 21 17 15 20 18 18 21 26 21 23 26 26 26 25 24 23
28 28 27 23 22 22 21 21 20 22 27 29 25 29 25 23 23 22 19 18 17 21 20 21 16 17 21 20 21 20 18 14 15 17 19 22 23 17 18 20 21 20 18 20 19
28 27 25 23 24 21 22 20 19 22 20 24 23 25 32 31 30 26 24 23 23 20 20 17 26 23 17 18 19 16 19 19 18 11 6 8 7 14 19 20 21 17 16 15 15
26 27 24 23 22 21 21 19 16 12 6 8 14 19 19 26 27 27 27 28 26 22 19 17 16 20 23 21 19 19 17 14 14 12 13 12 7 12 15 16 18 17 14 13 13
26 24 25 24 21 20 20 18 12 5 9 8 11 10 16 21 23 21 24 28 27 22 23 23 17 17 20 21 20 17 14 11 12 9 5 10 9 13 12 14 13 11 12 12 12
28 25 25 23 22 20 18 17 7 10 6 9 16 13 12 15 21 22 19 27 22 18 24 24 24 23 20 18 18 19 11 2 3 3 4 7 7 18 10 11 13 7 10 12 13
30 28 25 25 21 20 19 14 12 13 25 12 8 11 12 12 16 20 20 19 27 22 7 19 11 26 22 24 15 20 17 6 5 4 2 5 8 6 10 16 14 8 8 9 12
32 29 27 25 21 21 21 20 21 21 23 22 26 18 16 14 13 14 23 22 21 29 15 8 11 15 21 25 23 15 18 22 3 5 2 8 11 17 11 15 15 8 5 10 15
36 31 29 23 20 22 27 35 33 28 18 20 24 13 13 17 17 11 14 11 24 28 28 16 12 15 22 21 26 22 16 8 9 5 6 5 7 15 13 19 14 10 7 17 17
37 33 26 21 17 25 38 40 32 28 21 23 20 18 18 12 15 16 11 11 15 13 27 23 17 9 16 19 25 29 25 14 11 7 4 2 5 8 15 14 6 13 16 22 22
39 31 22 21 17 31 40 37 32 17 22 29 24 30 28 22 24 22 22 16 7 15 17 28 15 18 19 19 21 23 27 29 10 8 9 2 10 5 8 14 11 10 15 26 24
33 37 28 23 24 26 33 32 37 35 31 26 27 31 29 24 19 22 25 23 22 21 13 21 16 12 8 16 22 24 31 32 33 15 13 6 4 9 13 14 11 14 24 29 25
27 20 17 10 22 29 24 27 34 35 33 36 36 26 25 31 35 27 21 18 18 24 23 17 20 20 16 3 8 19 32 34 35 18 16 34 24 19 16 17 22 29 29 29 20
27 25 23 17 14 16 18 25 25 12 26 32 32 33 29 29 25 40 36 33 27 24 30 28 19 26 34 26 17 15 18 28 40 42 25 21 35 32 27 25 25 25 22 19 18
30 27 23 28 28 28 31 26 22 28 25 21 29 34 32 35 29 14 19 24 29 25 30 29 17 19 27 28 33 30 27 26 25 27 44 44 50 37 26 23 15 28 27 20 19
33 33 32 34 33 30 33 33 31 27 27 22 23 19 33 31 26 28 29 33 30 20 23 31 27 20 9 17 23 26 48 41 40 36 34 41 40 30 33 33 32 25 23 19 19

GFSSW_700_spd_291.txt.gz
Wind_Speed
18 18 16 15 14 14 14 14 14 14 15 15 15 15 15 15 16 13 14 15 14 14 14 13 15 19 25 30 30 25 28 29 23 17 15 17 19 21 17 24 21 20 24 20 22
19 16 18 17 16 15 15 15 15 14 14 15 15 15 17 16 15 13 14 14 13 13 13 14 13 18 25 28 31 33 36 33 17 13 18 15 18 19 20 21 27 26 25 22 22
22 19 19 19 18 18 17 16 16 16 15 15 15 16 16 16 15 14 13 14 13 12 12 12 16 19 23 26 33 35 37 23 22 20 16 20 23 23 23 24 30 29 25 24 24
22 21 19 20 18 18 18 17 16 18 17 16 16 17 16 16 10 8 10 9 12 12 11 13 16 20 24 28 32 31 32 24 24 21 20 24 26 22 23 18 21 26 24 27 26
18 19 18 19 20 21 21 21 20 19 20 19 17 17 17 16 14 15 13 13 10 11 12 13 16 18 22 27 25 29 26 21 30 30 30 27 27 30 28 20 26 25 24 21 20
19 20 20 17 19 19 21 23 23 22 22 21 20 18 17 17 16 14 15 14 12 13 12 13 17 19 21 16 21 21 22 26 26 33 33 27 27 29 21 21 24 24 25 23 22
21 19 20 19 17 19 19 21 22 23 24 23 21 20 18 16 16 16 16 14 13 12 13 15 17 22 21 22 21 26 22 23 30 31 31 27 29 31 15 20 21 21 24 26 25
21 21 21 21 19 18 19 20 20 20 21 21 20 19 20 18 16 16 16 17 14 13 12 13 17 22 20 19 13 25 24 26 26 24 27 26 27 16 17 18 19 21 21 21 24
20 20 20 21 21 20 20 21 22 20 19 18 19 17 20 17 15 15 16 17 18 14 14 15 17 21 22 17 17 15 17 22 23 23 19 18 20 19 20 17 16 18 19 19 20
18 18 19 20 20 20 20 20 21 21 19 17 18 16 15 17 17 13 13 15 17 14 15 17 19 22 23 25 15 14 19 14 12 14 21 19 19 17 14 14 15 17 20 21 20
18 17 17 17 19 19 19 20 21 22 20 15 16 19 17 17 15 15 13 14 18 18 19 19 22 26 23 23 22 9 9 9 12 17 18 21 23 16 18 23 22 22 23 22 20
20 19 18 17 17 18 18 19 20 22 25 19 18 21 23 21 23 21 17 16 17 20 18 19 25 20 17 16 20 25 21 15 13 15 17 21 25 22 21 24 22 22 23 23 24
20 19 19 18 17 17 16 17 18 20 25 26 22 20 21 23 23 24 21 20 18 18 21 23 14 8 20 20 19 20 26 27 20 20 18 21 30 25 21 21 21 25 27 27 28
20 21 21 19 19 18 16 16 15 17 16 16 13 8 9 16 23 23 23 22 23 18 19 19 21 23 14 18 22 24 22 21 20 17 9 10 7 17 17 18 18 20 19 23 26
23 22 21 19 19 19 16 15 13 11 5 8 7 8 9 8 10 14 24 25 25 20 17 16 16 18 25 25 19 22 21 18 17 19 19 19 9 15 13 16 13 15 17 20 24
23 23 21 23 20 18 17 14 10 1 5 5 10 12 13 12 12 15 14 22 26 26 24 25 19 16 16 20 21 19 15 11 10 9 5 21 19 9 19 16 14 17 20 21 22
23 24 22 21 21 19 17 12 5 5 6 5 8 9 12 14 14 15 17 20 22 20 29 30 29 28 22 16 17 21 13 1 1 2 6 11 13 24 14 16 14 12 13 15 17
22 24 24 23 21 19 15 8 7 8 13 15 18 22 24 22 18 14 17 20 23 25 6 19 15 33 28 29 18 23 23 7 7 4 4 11 10 7 15 22 18 9 13 14 13
24 26 25 24 22 18 15 10 8 10 9 13 19 21 25 22 19 17 17 22 22 24 20 10 11 12 26 28 27 20 26 24 3 3 0 7 10 10 10 10 12 17 17 14 12
34 27 29 23 18 15 16 17 14 13 15 17 12 12 15 13 15 15 17 17 18 25 23 20 9 12 16 19 26 23 21 11 12 2 4 5 11 15 15 22 23 20 22 18 14
37 32 23 20 18 27 21 21 21 15 21 20 15 20 22 21 18 19 16 18 16 16 22 25 22 11 16 18 23 26 21 14 8 8 5 2 8 13 18 22 17 21 22 18 10
38 35 34 37 22 15 15 20 18 22 22 24 24 26 29 20 24 26 25 21 15 18 23 29 15 18 29 19 20 27 31 32 13 9 8 5 14 8 12 14 18 23 22 16 10
35 37 32 27 22 27 25 25 23 27 24 22 25 23 22 22 18 28 36 30 22 18 14 23 17 6 4 15 23 27 33 37 37 26 33 9 7 23 19 10 23 24 24 18 15
30 26 33 31 12 7 20 24 19 20 24 15 25 28 33 40 37 25 22 29 26 31 27 22 24 19 16 6 6 21 36 33 37 34 28 43 19 24 16 20 21 24 24 21 20
25 28 29 27 33 26 22 24 27 26 27 25 30 17 16 20 24 26 34 31 28 29 25 28 27 30 30 20 14 12 11 22 43 44 29 31 42 36 16 12 17 23 21 23 20
28 29 33 35 31 32 29 31 27 28 32 34 32 34 34 20 16 25 22 17 18 22 33 35 27 24 25 26 29 34 36 33 30 32 49 40 35 28 31 34 20 21 25 23 25
31 32 32 37 35 34 37 31 27 30 35 35 28 29 35 38 38 34 32 28 26 19 22 42 42 28 19 21 12 19 39 40 46 47 44 49 47 41 37 35 35 39 42 29 25